This is the latest recevied weather packets stored in our database for station/object KE8RXN. If no packets are shown the sender has not sent any weather packets the latest 10 day(s).
| Time | Temp. | Humidity | Pressure | Rain* | Wind** | Luminosity | Snow |
|---|---|---|---|---|---|---|---|
| 1777926988 | 23.33° C | 35% | 1002.9 hPa | 0 mm | - | 429 W/m² | - |
| 1777926685 | 23.33° C | 35% | 1002.9 hPa | 0 mm | - | 421 W/m² | - |
| 1777926380 | 22.78° C | 35% | 1002.9 hPa | 0 mm | - | 406 W/m² | - |
| 1777926077 | 22.78° C | 34% | 1003.1 hPa | 0 mm | - | 436 W/m² | - |
| 1777925774 | 22.78° C | 33% | 1003.1 hPa | 0 mm | - | 346 W/m² | - |
| 1777925472 | 22.78° C | 34% | 1003.2 hPa | 0 mm | - | 339 W/m² | - |
| 1777925169 | 22.78° C | 37% | 1003.2 hPa | 0 mm | - | 277 W/m² | - |
| 1777924865 | 22.78° C | 37% | 1003.2 hPa | 0 mm | - | 326 W/m² | - |
| 1777924561 | 22.78° C | 35% | 1003.3 hPa | 0 mm | - | 409 W/m² | - |
| 1777924258 | 22.78° C | 35% | 1003.2 hPa | 0 mm | - | 436 W/m² | - |
| 1777923954 | 22.78° C | 36% | 1003.3 hPa | 0 mm | - | 404 W/m² | - |
| 1777923650 | 22.78° C | 36% | 1003.4 hPa | 0 mm | - | 516 W/m² | - |
| 1777923347 | 22.78° C | 35% | 1003.5 hPa | 0 mm | - | 246 W/m² | - |
| 1777923045 | 23.33° C | 33% | 1003.5 hPa | 0 mm | - | 517 W/m² | - |
| 1777922743 | 23.33° C | 33% | 1003.6 hPa | 0 mm | - | 551 W/m² | - |
| 1777922441 | 23.33° C | 31% | 1003.4 hPa | 0 mm | - | 452 W/m² | - |
| 1777922139 | 23.33° C | 30% | 1003.4 hPa | 0 mm | - | 497 W/m² | - |
| 1777921835 | 23.33° C | 31% | 1003.5 hPa | 0 mm | - | 324 W/m² | - |
| 1777921531 | 23.33° C | 30% | 1003.5 hPa | 0 mm | - | 570 W/m² | - |
| 1777921227 | 23.33° C | 29% | 1003.5 hPa | 0 mm | - | 557 W/m² | - |
| 1777920925 | 23.33° C | 30% | 1003.4 hPa | 0 mm | - | 568 W/m² | - |
| 1777920621 | 22.78° C | 30% | 1003.5 hPa | 0 mm | - | 632 W/m² | - |
| 1777920316 | 23.33° C | 30% | 1003.3 hPa | 0 mm | - | 550 W/m² | - |
| 1777920012 | 22.78° C | 28% | 1003.6 hPa | 0 mm | - | 473 W/m² | - |
| 1777919709 | 23.33° C | 27% | 1003.3 hPa | 0 mm | - | 650 W/m² | - |
* Rain latest hour (hover to see other rain measurements)
** Current wind speed in m/s (hover to see current wind gust speed)